Time,TemperatureF,DewpointF,PressureIn,WindDirection,WindDirectionDegrees,WindSpeedMPH,WindSpeedGustMPH,Humidity,HourlyPrecipIn,Conditions,Clouds,dailyrainin,SoftwareType,DateUTC
2013-06-23 00:01:00,68.0,62.0,30.14,SW,234,0.0,-999.0,82,-99.99,,,-99.99,,2013-06-23 04:01:00,
2013-06-23 00:11:00,68.0,62.0,30.14,SW,234,0.0,-999.0,82,-99.99,,,-99.99,,2013-06-23 04:11:00,
2013-06-23 00:21:00,68.0,62.0,30.14,SW,234,0.0,-999.0,82,-99.99,,,-99.99,,2013-06-23 04:21:00,
2013-06-23 00:31:00,68.0,62.0,30.14,SW,234,0.0,-999.0,82,-99.99,,,-99.99,,2013-06-23 04:31:00,
2013-06-23 01:11:00,68.0,63.0,30.14,WSW,254,0.0,-999.0,83,-99.99,,,-99.99,,2013-06-23 05:11:00,
2013-06-23 01:22:00,67.0,61.0,30.14,SSW,198,0.0,-999.0,81,-99.99,,,-99.99,,2013-06-23 05:22:00,
2013-06-23 01:32:00,67.0,61.0,30.14,SSW,198,0.0,-999.0,81,-99.99,,,-99.99,,2013-06-23 05:32:00,
2013-06-23 01:41:00,67.0,61.0,30.14,East,89,0.0,-999.0,81,-99.99,,,-99.99,,2013-06-23 05:41:00,
2013-06-23 01:51:00,67.0,61.0,30.14,East,89,0.0,-999.0,81,-99.99,,,-99.99,,2013-06-23 05:51:00,
2013-06-23 02:02:00,66.0,60.0,30.12,SSE,168,0.0,-999.0,81,-99.99,,,-99.99,,2013-06-23 06:02:00,
2013-06-23 02:12:00,66.0,60.0,30.12,SSE,168,0.0,-999.0,81,-99.99,,,-99.99,,2013-06-23 06:12:00,
2013-06-23 02:22:00,66.0,60.0,30.12,SW,229,0.0,-999.0,81,-99.99,,,-99.99,,2013-06-23 06:22:00,
2013-06-23 02:33:00,65.0,60.0,30.13,SSW,213,0.0,-999.0,83,-99.99,,,-99.99,,2013-06-23 06:33:00,
2013-06-23 02:43:00,65.0,60.0,30.13,SSW,213,0.0,-999.0,83,-99.99,,,-99.99,,2013-06-23 06:43:00,
2013-06-23 02:52:00,65.0,60.0,30.12,South,176,0.0,-999.0,84,-99.99,,,-99.99,,2013-06-23 06:52:00,
2013-06-23 03:02:00,65.0,60.0,30.12,ESE,106,0.0,-999.0,85,-99.99,,,-99.99,,2013-06-23 07:02:00,
2013-06-23 03:12:00,65.0,60.0,30.12,ESE,106,0.0,-999.0,85,-99.99,,,-99.99,,2013-06-23 07:12:00,
2013-06-23 03:22:00,64.0,60.0,30.12,ESE,106,0.0,-999.0,86,-99.99,,,-99.99,,2013-06-23 07:22:00,
2013-06-23 03:34:00,64.0,60.0,30.11,ESE,106,0.0,-999.0,87,-99.99,,,-99.99,,2013-06-23 07:34:00,
2013-06-23 03:43:00,64.0,60.0,30.11,ESE,106,0.0,-999.0,87,-99.99,,,-99.99,,2013-06-23 07:43:00,
2013-06-23 03:53:00,64.0,60.0,30.11,ESE,106,0.0,-999.0,87,-99.99,,,-99.99,,2013-06-23 07:53:00,
2013-06-23 04:02:00,63.0,59.0,30.11,ESE,106,0.0,-999.0,88,-99.99,,,-99.99,,2013-06-23 08:02:00,
2013-06-23 04:12:00,63.0,59.0,30.11,ESE,106,0.0,-999.0,88,-99.99,,,-99.99,,2013-06-23 08:12:00,
2013-06-23 04:22:00,63.0,59.0,30.10,ESE,107,0.0,-999.0,88,-99.99,,,-99.99,,2013-06-23 08:22:00,
2013-06-23 04:34:00,63.0,60.0,30.11,ESE,107,0.0,-999.0,89,-99.99,,,-99.99,,2013-06-23 08:34:00,
2013-06-23 04:43:00,63.0,60.0,30.11,ESE,107,0.0,-999.0,89,-99.99,,,-99.99,,2013-06-23 08:43:00,
2013-06-23 04:53:00,62.0,59.0,30.11,ESE,107,0.0,-999.0,90,-99.99,,,-99.99,,2013-06-23 08:53:00,
2013-06-23 05:02:00,63.0,60.0,30.11,ESE,107,0.0,-999.0,89,-99.99,,,-99.99,,2013-06-23 09:02:00,
2013-06-23 05:12:00,63.0,60.0,30.11,ESE,107,0.0,-999.0,89,-99.99,,,-99.99,,2013-06-23 09:12:00,
2013-06-23 05:22:00,63.0,60.0,30.11,East,99,0.0,-999.0,89,-99.99,,,-99.99,,2013-06-23 09:22:00,
2013-06-23 05:34:00,63.0,60.0,30.11,East,99,0.0,-999.0,89,-99.99,,,-99.99,,2013-06-23 09:34:00,
2013-06-23 05:43:00,63.0,60.0,30.11,East,99,0.0,-999.0,89,-99.99,,,-99.99,,2013-06-23 09:43:00,
2013-06-23 05:54:00,62.0,59.0,30.11,East,99,0.0,-999.0,89,-99.99,,,-99.99,,2013-06-23 09:54:00,
2013-06-23 06:02:00,62.0,59.0,30.11,East,99,0.0,-999.0,90,-99.99,,,-99.99,,2013-06-23 10:02:00,
2013-06-23 06:12:00,62.0,59.0,30.11,East,99,0.0,-999.0,90,-99.99,,,-99.99,,2013-06-23 10:12:00,
2013-06-23 06:22:00,62.0,59.0,30.11,East,99,0.0,-999.0,90,-99.99,,,-99.99,,2013-06-23 10:22:00,
2013-06-23 06:34:00,62.0,59.0,30.12,East,99,0.0,-999.0,90,-99.99,,,-99.99,,2013-06-23 10:34:00,
2013-06-23 06:43:00,62.0,59.0,30.12,East,99,0.0,-999.0,90,-99.99,,,-99.99,,2013-06-23 10:43:00,
2013-06-23 06:53:00,63.0,60.0,30.12,NE,51,0.0,-999.0,91,-99.99,,,-99.99,,2013-06-23 10:53:00,
2013-06-23 07:02:00,63.0,60.0,30.13,ENE,78,0.0,-999.0,90,-99.99,,,-99.99,,2013-06-23 11:02:00,
2013-06-23 07:11:00,63.0,60.0,30.13,ENE,78,0.0,-999.0,90,-99.99,,,-99.99,,2013-06-23 11:11:00,
2013-06-23 07:22:00,63.0,60.0,30.13,ENE,78,0.0,-999.0,90,-99.99,,,-99.99,,2013-06-23 11:22:00,
2013-06-23 07:33:00,63.0,60.0,30.14,East,95,0.0,-999.0,89,-99.99,,,-99.99,,2013-06-23 11:33:00,
2013-06-23 07:43:00,63.0,60.0,30.14,East,95,0.0,-999.0,89,-99.99,,,-99.99,,2013-06-23 11:43:00,
2013-06-23 07:53:00,64.0,60.0,30.14,SSE,151,0.0,-999.0,87,-99.99,,,-99.99,,2013-06-23 11:53:00,
2013-06-23 08:01:00,64.0,60.0,30.14,WSW,239,0.0,-999.0,88,-99.99,,,-99.99,,2013-06-23 12:01:00,
2013-06-23 08:12:00,64.0,60.0,30.14,WSW,239,0.0,-999.0,88,-99.99,,,-99.99,,2013-06-23 12:12:00,
2013-06-23 08:22:00,64.0,61.0,30.14,ENE,58,0.0,-999.0,89,-99.99,,,-99.99,,2013-06-23 12:22:00,
2013-06-23 08:33:00,64.0,61.0,30.14,ENE,58,0.0,-999.0,89,-99.99,,,-99.99,,2013-06-23 12:33:00,
2013-06-23 08:43:00,64.0,60.0,30.12,ENE,58,0.0,-999.0,88,-99.99,,,-99.99,,2013-06-23 12:43:00,
2013-06-23 08:53:00,65.0,61.0,30.14,ENE,58,0.0,-999.0,87,-99.99,,,-99.99,,2013-06-23 12:53:00,
2013-06-23 09:02:00,67.0,62.0,30.14,ENE,58,0.0,-999.0,83,-99.99,,,-99.99,,2013-06-23 13:02:00,
2013-06-23 09:34:00,70.0,64.0,30.13,SSW,208,0.0,-999.0,82,-99.99,,,-99.99,,2013-06-23 13:34:00,
2013-06-23 09:43:00,72.0,64.0,30.13,SSW,203,0.0,-999.0,77,-99.99,,,-99.99,,2013-06-23 13:43:00,
2013-06-23 09:54:00,73.0,65.0,30.13,WSW,258,0.0,-999.0,75,-99.99,,,-99.99,,2013-06-23 13:54:00,
2013-06-23 10:05:00,74.0,65.0,30.11,SW,230,0.0,-999.0,73,-99.99,,,-99.99,,2013-06-23 14:05:00,
2013-06-23 10:11:00,74.0,65.0,30.11,SW,230,0.0,-999.0,73,-99.99,,,-99.99,,2013-06-23 14:11:00,
2013-06-23 10:22:00,75.0,66.0,30.11,ENE,72,0.0,-999.0,74,-99.99,,,-99.99,,2013-06-23 14:22:00,
2013-06-23 10:34:00,75.0,67.0,30.11,SW,233,0.0,-999.0,75,-99.99,,,-99.99,,2013-06-23 14:34:00,
2013-06-23 10:44:00,75.0,67.0,30.11,SW,233,0.0,-999.0,75,-99.99,,,-99.99,,2013-06-23 14:44:00,
2013-06-23 10:52:00,75.0,67.0,30.11,SW,222,0.0,-999.0,77,-99.99,,,-99.99,,2013-06-23 14:52:00,
2013-06-23 11:05:00,75.0,66.0,30.11,SW,232,0.0,-999.0,74,-99.99,,,-99.99,,2013-06-23 15:05:00,
2013-06-23 11:12:00,75.0,66.0,30.11,SW,232,0.0,-999.0,74,-99.99,,,-99.99,,2013-06-23 15:12:00,
2013-06-23 11:23:00,76.0,67.0,30.11,NE,35,0.0,-999.0,73,-99.99,,,-99.99,,2013-06-23 15:23:00,
2013-06-23 11:35:00,77.0,68.0,30.10,SSW,209,0.0,-999.0,74,-99.99,,,-99.99,,2013-06-23 15:35:00,
2013-06-23 11:43:00,77.0,68.0,30.10,SSW,209,0.0,-999.0,74,-99.99,,,-99.99,,2013-06-23 15:43:00,
2013-06-23 11:53:00,78.0,68.0,30.10,SSE,148,0.0,-999.0,71,-99.99,,,-99.99,,2013-06-23 15:53:00,
2013-06-23 12:06:00,79.0,70.0,30.09,South,189,0.0,-999.0,73,-99.99,,,-99.99,,2013-06-23 16:06:00,
2013-06-23 12:12:00,79.0,70.0,30.09,South,189,0.0,-999.0,73,-99.99,,,-99.99,,2013-06-23 16:12:00,
2013-06-23 12:22:00,80.0,70.0,30.09,NW,326,0.0,-999.0,72,-99.99,,,-99.99,,2013-06-23 16:22:00,
2013-06-23 12:36:00,82.0,70.0,30.08,SW,232,0.0,-999.0,67,-99.99,,,-99.99,,2013-06-23 16:36:00,
2013-06-23 12:43:00,82.0,70.0,30.08,SW,232,0.0,-999.0,67,-99.99,,,-99.99,,2013-06-23 16:43:00,
2013-06-23 12:53:00,84.0,71.0,30.07,East,89,0.0,-999.0,65,-99.99,,,-99.99,,2013-06-23 16:53:00,
2013-06-23 13:06:00,84.0,71.0,30.06,WSW,257,0.0,-999.0,66,-99.99,,,-99.99,,2013-06-23 17:06:00,
2013-06-23 13:22:00,86.0,71.0,30.06,NE,41,0.0,-999.0,61,-99.99,,,-99.99,,2013-06-23 17:22:00,
2013-06-23 13:33:00,87.0,70.0,30.05,SSE,167,0.0,-999.0,58,-99.99,,,-99.99,,2013-06-23 17:33:00,
2013-06-23 13:43:00,87.0,70.0,30.05,SSE,167,0.0,-999.0,58,-99.99,,,-99.99,,2013-06-23 17:43:00,
2013-06-23 13:53:00,87.0,71.0,30.05,WSW,257,0.0,-999.0,60,-99.99,,,-99.99,,2013-06-23 17:53:00,
2013-06-23 14:01:00,88.0,71.0,30.05,WNW,284,0.0,-999.0,57,-99.99,,,-99.99,,2013-06-23 18:01:00,
2013-06-23 14:12:00,88.0,71.0,30.05,WNW,284,0.0,-999.0,57,-99.99,,,-99.99,,2013-06-23 18:12:00,
2013-06-23 14:22:00,88.0,72.0,30.04,NNW,339,0.0,-999.0,59,-99.99,,,-99.99,,2013-06-23 18:22:00,
2013-06-23 14:34:00,88.0,72.0,30.04,NNW,339,0.0,-999.0,59,-99.99,,,-99.99,,2013-06-23 18:34:00,
2013-06-23 14:43:00,88.0,72.0,30.03,WSW,251,0.0,-999.0,60,-99.99,,,-99.99,,2013-06-23 18:43:00,
2013-06-23 14:53:00,87.0,72.0,30.03,SE,140,0.0,-999.0,62,-99.99,,,-99.99,,2013-06-23 18:53:00,
2013-06-23 15:01:00,87.0,71.0,30.03,NNE,21,0.0,-999.0,60,-99.99,,,-99.99,,2013-06-23 19:01:00,
2013-06-23 15:11:00,87.0,71.0,30.03,NNE,21,0.0,-999.0,60,-99.99,,,-99.99,,2013-06-23 19:11:00,
2013-06-23 15:32:00,88.0,73.0,30.02,NNE,27,0.0,-999.0,62,-99.99,,,-99.99,,2013-06-23 19:32:00,
2013-06-23 15:43:00,88.0,73.0,30.02,NNE,27,0.0,-999.0,62,-99.99,,,-99.99,,2013-06-23 19:43:00,
2013-06-23 15:53:00,88.0,75.0,30.02,WNW,301,0.0,-999.0,65,-99.99,,,-99.99,,2013-06-23 19:53:00,
2013-06-23 16:02:00,87.0,73.0,30.02,SW,223,0.0,-999.0,63,-99.99,,,-99.99,,2013-06-23 20:02:00,
2013-06-23 16:12:00,87.0,73.0,30.02,SW,223,0.0,-999.0,63,-99.99,,,-99.99,,2013-06-23 20:12:00,
2013-06-23 16:24:00,88.0,73.0,30.02,WSW,237,0.0,-999.0,61,-99.99,,,-99.99,,2013-06-23 20:24:00,
2013-06-23 16:33:00,88.0,73.0,30.01,WSW,243,0.0,-999.0,61,-99.99,,,-99.99,,2013-06-23 20:33:00,
2013-06-23 16:42:00,88.0,73.0,30.01,WSW,243,0.0,-999.0,61,-99.99,,,-99.99,,2013-06-23 20:42:00,
2013-06-23 16:53:00,88.0,72.0,30.00,SSW,192,0.0,-999.0,60,-99.99,,,-99.99,,2013-06-23 20:53:00,
2013-06-23 17:01:00,87.0,73.0,30.00,East,80,0.0,-999.0,63,-99.99,,,-99.99,,2013-06-23 21:01:00,
2013-06-23 17:22:00,87.0,72.0,30.00,South,184,0.0,-999.0,62,-99.99,,,-99.99,,2013-06-23 21:22:00,
2013-06-23 17:34:00,86.0,72.0,29.99,SSW,203,0.0,-999.0,64,-99.99,,,-99.99,,2013-06-23 21:34:00,
2013-06-23 17:44:00,86.0,72.0,29.99,SSW,203,0.0,-999.0,64,-99.99,,,-99.99,,2013-06-23 21:44:00,
2013-06-23 17:52:00,85.0,70.0,30.00,South,176,1.0,-999.0,62,-99.99,,,-99.99,,2013-06-23 21:52:00,
2013-06-23 18:01:00,85.0,70.0,30.00,South,176,1.0,-999.0,62,-99.99,,,-99.99,,2013-06-23 22:01:00,
2013-06-23 18:12:00,84.0,71.0,29.99,WSW,243,1.0,-999.0,65,-99.99,,,-99.99,,2013-06-23 22:12:00,
2013-06-23 18:32:00,83.0,70.0,30.01,SSW,198,0.0,-999.0,65,-99.99,,,-99.99,,2013-06-23 22:32:00,
2013-06-23 18:43:00,83.0,70.0,30.01,SSW,198,0.0,-999.0,65,-99.99,,,-99.99,,2013-06-23 22:43:00,
2013-06-23 18:53:00,82.0,71.0,30.01,SW,220,0.0,-999.0,69,-99.99,,,-99.99,,2013-06-23 22:53:00,
2013-06-23 19:01:00,81.0,70.0,30.00,South,188,0.0,-999.0,70,-99.99,,,-99.99,,2013-06-23 23:01:00,
2013-06-23 19:12:00,81.0,70.0,30.00,South,188,0.0,-999.0,70,-99.99,,,-99.99,,2013-06-23 23:12:00,
2013-06-23 19:22:00,80.0,69.0,30.00,South,179,0.0,-999.0,69,-99.99,,,-99.99,,2013-06-23 23:22:00,
2013-06-23 19:33:00,79.0,69.0,30.01,South,179,0.0,-999.0,71,-99.99,,,-99.99,,2013-06-23 23:33:00,
2013-06-23 19:44:00,79.0,69.0,30.01,South,179,0.0,-999.0,71,-99.99,,,-99.99,,2013-06-23 23:44:00,
2013-06-23 19:52:00,79.0,69.0,30.01,South,179,0.0,-999.0,72,-99.99,,,-99.99,,2013-06-23 23:52:00,
2013-06-23 20:01:00,78.0,69.0,30.01,South,179,0.0,-999.0,74,-99.99,,,-99.99,,2013-06-24 00:01:00,
2013-06-23 20:22:00,77.0,69.0,30.01,South,179,0.0,-999.0,76,-99.99,,,-99.99,,2013-06-24 00:22:00,
2013-06-23 20:33:00,77.0,69.0,30.01,South,179,0.0,-999.0,77,-99.99,,,-99.99,,2013-06-24 00:33:00,
2013-06-23 20:42:00,77.0,69.0,30.01,South,179,0.0,-999.0,77,-99.99,,,-99.99,,2013-06-24 00:42:00,
2013-06-23 20:52:00,76.0,69.0,30.01,South,179,0.0,-999.0,78,-99.99,,,-99.99,,2013-06-24 00:52:00,
2013-06-23 21:02:00,75.0,68.0,30.02,South,179,0.0,-999.0,79,-99.99,,,-99.99,,2013-06-24 01:02:00,
2013-06-23 21:11:00,75.0,68.0,30.02,South,179,0.0,-999.0,79,-99.99,,,-99.99,,2013-06-24 01:11:00,
2013-06-23 21:22:00,75.0,68.0,30.02,South,179,0.0,-999.0,80,-99.99,,,-99.99,,2013-06-24 01:22:00,
2013-06-23 21:32:00,74.0,67.0,30.02,South,179,0.0,-999.0,79,-99.99,,,-99.99,,2013-06-24 01:32:00,
2013-06-23 21:42:00,74.0,67.0,30.02,South,179,0.0,-999.0,79,-99.99,,,-99.99,,2013-06-24 01:42:00,
2013-06-23 21:53:00,74.0,68.0,30.03,South,179,0.0,-999.0,81,-99.99,,,-99.99,,2013-06-24 01:53:00,
2013-06-23 22:02:00,74.0,68.0,30.04,South,179,0.0,-999.0,81,-99.99,,,-99.99,,2013-06-24 02:02:00,
2013-06-23 22:11:00,74.0,68.0,30.04,South,179,0.0,-999.0,81,-99.99,,,-99.99,,2013-06-24 02:11:00,
2013-06-23 22:22:00,74.0,68.0,30.04,South,179,0.0,-999.0,81,-99.99,,,-99.99,,2013-06-24 02:22:00,
2013-06-23 22:42:00,74.0,67.0,30.03,WSW,237,0.0,-999.0,80,-99.99,,,-99.99,,2013-06-24 02:42:00,
2013-06-23 22:53:00,73.0,67.0,30.04,SW,227,0.0,-999.0,82,-99.99,,,-99.99,,2013-06-24 02:53:00,
2013-06-23 23:01:00,73.0,68.0,30.03,SW,222,0.0,-999.0,84,-99.99,,,-99.99,,2013-06-24 03:01:00,
2013-06-23 23:11:00,73.0,68.0,30.03,SW,222,0.0,-999.0,84,-99.99,,,-99.99,,2013-06-24 03:11:00,
2013-06-23 23:22:00,73.0,69.0,30.03,SW,220,0.0,-999.0,86,-99.99,,,-99.99,,2013-06-24 03:22:00,
2013-06-23 23:33:00,73.0,69.0,30.02,SSW,206,0.0,-999.0,87,-99.99,,,-99.99,,2013-06-24 03:33:00,
2013-06-23 23:43:00,73.0,69.0,30.02,SSW,206,0.0,-999.0,87,-99.99,,,-99.99,,2013-06-24 03:43:00,
2013-06-23 23:53:00,72.0,68.0,30.02,ENE,78,0.0,-999.0,88,-99.99,,,-99.99,,2013-06-24 03:53:00,